Theta_e
313 316 315 314 314 312 311 311 311 311 312 313 314 313 312 312 312 313 314 312 310 311 311 312 312 312 312 312 313 314 314 313 314 314 314 314 313 313 312 312 312 312 311 311 310 310 310 310 310 310 309 309 309 309 309 308 308 307 306 305 305 304 302 302 301 301 300 298 297 297 296 294 291 289 288 287 286 286 285 285 285 285 285 285 284 284
313 317 314 311 310 309 309 309 310 311 313 313 313 312 312 313 313 313 314 311 310 310 310 311 312 312 312 312 313 314 313 313 314 314 314 314 313 313 312 312 312 312 312 312 310 310 310 310 310 310 309 309 309 309 309 309 308 308 307 306 305 303 302 302 302 301 300 299 297 297 296 294 292 289 288 286 285 285 285 285 285 284 284 284 284 284
315 316 312 309 308 308 309 309 310 312 312 312 312 312 312 313 313 313 313 310 309 309 310 311 311 311 312 311 312 313 313 314 314 314 314 314 313 313 312 312 312 312 312 312 311 311 311 310 310 310 309 309 309 309 309 309 308 308 307 306 305 304 302 302 302 301 300 299 298 297 296 295 294 292 290 288 286 285 284 284 284 284 284 284 284 284
315 315 310 308 308 309 311 310 310 311 312 312 312 312 312 313 312 312 312 311 310 310 310 310 310 309 311 312 313 314 314 314 314 313 313 313 313 313 313 313 312 312 312 312 311 311 311 310 310 310 309 309 309 309 309 309 308 308 307 306 305 304 303 302 302 301 300 299 298 298 297 296 295 294 292 290 287 285 285 284 284 284 284 284 284 284
315 311 307 308 308 309 311 312 312 312 312 313 313 312 311 312 311 311 312 311 312 311 308 309 310 311 313 314 313 314 314 312 312 312 312 311 311 311 311 312 312 312 311 311 311 311 311 311 310 310 309 309 309 309 309 309 308 308 307 307 306 304 303 302 302 301 300 299 298 298 297 296 296 295 294 292 288 285 285 285 284 284 284 284 284 284
314 308 307 310 309 309 311 312 313 311 311 313 312 310 310 310 309 310 311 310 311 312 309 309 310 311 313 313 313 314 313 312 313 312 313 313 312 312 311 311 311 311 311 311 311 310 310 311 311 309 309 309 309 309 309 308 308 308 308 307 306 305 304 302 302 301 300 299 298 297 297 296 295 295 294 292 288 286 285 284 284 284 284 284 284 283
312 307 307 310 310 311 312 312 313 310 310 313 309 306 307 308 308 309 309 309 310 311 310 309 310 310 312 312 313 314 312 312 313 313 314 313 312 313 313 312 312 312 312 312 312 311 310 310 310 309 309 308 308 308 308 308 308 308 308 307 307 305 304 303 302 301 300 300 298 298 297 296 295 294 293 291 288 286 285 284 284 284 284 284 284 283
312 309 308 310 310 312 313 313 312 308 310 312 307 304 307 307 308 309 308 308 309 310 311 311 310 310 312 313 313 312 311 311 312 311 312 313 312 312 312 312 312 312 312 312 312 311 311 311 311 310 309 308 308 308 307 307 307 307 308 308 307 306 305 303 302 301 301 300 299 297 297 296 296 295 295 292 289 286 285 284 284 284 283 283 283 283
311 311 311 310 311 312 312 310 309 308 310 310 305 304 306 306 308 309 308 309 309 309 311 312 312 311 311 312 311 311 311 310 310 310 311 311 312 312 311 311 311 311 311 310 310 309 309 310 310 310 309 309 308 307 307 306 306 307 308 308 308 307 305 304 303 302 301 300 299 297 297 297 296 296 295 294 291 287 285 284 284 283 283 283 283 283
310 309 308 310 311 311 310 308 306 307 310 308 304 305 306 305 306 307 307 309 310 310 311 312 312 310 310 310 311 312 311 310 310 309 310 311 311 311 311 311 310 310 310 308 308 307 307 308 308 308 308 309 308 307 306 306 306 307 308 308 308 307 306 305 304 303 301 300 299 297 297 296 296 296 295 294 293 288 285 284 284 283 283 283 283 283
308 306 306 309 310 309 308 306 306 306 308 307 307 309 309 308 307 307 308 308 310 312 311 310 311 310 309 309 309 311 311 310 310 309 309 310 311 311 310 309 309 309 308 307 306 306 306 306 306 307 307 308 308 307 306 306 306 307 308 308 308 307 306 305 304 303 302 300 299 298 297 296 296 296 295 294 293 288 285 284 284 283 283 283 282 282
309 308 309 308 307 307 308 308 307 305 306 307 309 310 311 311 309 308 309 308 310 312 309 307 309 309 309 309 310 312 312 311 311 310 309 310 310 310 309 308 308 308 307 307 306 305 305 305 305 305 306 306 307 307 307 306 305 306 308 308 308 307 306 305 304 303 302 301 299 298 297 296 296 296 295 295 293 288 284 284 283 283 283 282 282 282
312 310 309 307 306 306 308 310 309 307 307 309 310 310 311 311 309 309 310 310 311 311 307 306 307 308 309 310 311 311 312 311 311 311 310 310 310 310 310 309 308 308 308 308 307 306 305 305 305 305 304 305 305 305 305 305 305 306 307 308 308 307 306 305 304 303 302 301 300 299 297 296 296 296 295 295 293 289 284 283 283 283 282 282 281 281
311 311 309 309 308 305 306 309 309 309 309 310 310 310 310 309 308 309 311 310 311 310 307 305 306 308 309 310 311 310 311 311 310 310 309 309 309 309 309 309 308 308 309 309 308 307 306 305 305 304 304 304 304 304 304 304 305 306 307 308 308 307 306 305 304 303 302 301 300 298 297 296 296 296 295 295 293 289 285 283 283 283 282 282 281 281
309 310 309 310 309 306 306 307 307 307 308 309 309 309 309 309 309 310 310 311 312 311 308 306 306 309 309 310 311 310 310 310 309 309 309 308 308 308 308 308 308 308 307 308 308 307 306 305 304 304 304 304 303 303 303 303 304 305 306 307 307 307 306 305 304 303 302 301 300 299 297 296 295 295 295 294 294 290 286 283 283 283 282 282 282 281
308 309 309 308 305 305 306 306 304 306 308 308 308 308 309 309 308 309 310 310 310 310 309 308 308 310 310 310 311 310 310 310 310 309 309 308 308 308 308 307 307 307 306 306 307 306 306 305 305 305 304 304 303 302 302 302 303 304 305 307 307 307 306 305 304 303 302 301 300 299 297 296 295 295 295 294 294 291 287 283 283 282 282 282 281 281
307 308 311 308 305 304 305 305 305 306 308 308 307 308 308 306 306 309 310 309 308 308 310 310 310 311 310 310 310 309 309 309 309 309 308 307 307 307 307 307 306 306 306 306 306 306 306 305 306 306 305 305 303 302 302 302 302 302 303 305 306 306 305 305 304 303 302 301 300 299 297 296 295 295 295 294 294 292 288 284 283 282 282 282 281 281
305 307 310 309 308 305 302 304 306 305 306 307 308 307 306 305 306 308 309 309 308 309 309 309 311 312 310 310 309 308 308 308 307 307 306 307 306 306 306 306 306 306 305 306 306 306 306 305 305 305 305 304 303 302 302 302 302 302 302 303 305 306 306 305 304 303 302 301 300 299 298 296 295 295 295 294 293 292 289 284 282 282 282 282 281 281
304 307 308 306 307 307 303 303 307 306 304 306 307 306 306 306 306 307 309 309 309 308 308 309 311 311 310 309 309 308 307 307 307 306 306 306 306 306 306 305 305 305 305 305 305 305 305 305 304 304 304 302 302 301 301 301 301 301 302 302 303 305 306 305 304 303 302 301 300 299 298 296 295 295 294 294 293 292 290 285 282 282 282 281 281 281
305 306 307 306 307 306 305 305 307 308 306 305 306 307 306 306 306 307 308 307 308 308 308 309 309 309 308 309 308 308 307 306 306 306 305 306 306 306 305 305 305 305 305 305 305 305 305 304 304 304 303 302 301 301 301 301 301 300 301 302 302 303 305 305 304 303 302 301 300 299 298 296 295 295 294 294 293 293 290 286 282 282 282 281 281 281
306 306 306 307 308 307 307 306 306 306 306 306 307 307 307 307 306 306 306 307 307 307 308 307 307 307 308 308 307 307 307 307 306 306 306 306 306 305 305 305 305 305 305 305 304 304 304 304 304 303 303 302 301 301 300 300 301 300 300 300 301 302 303 304 304 303 302 302 301 300 298 296 295 295 294 294 293 293 291 286 282 282 282 281 281 281
305 305 306 307 307 308 307 305 303 303 304 305 306 306 307 306 306 305 306 306 305 306 307 306 306 306 307 308 307 307 307 307 306 306 306 305 305 305 305 305 305 305 305 305 304 304 304 304 303 303 303 302 302 301 300 300 300 300 300 300 300 301 302 303 303 303 302 301 301 300 298 296 295 295 294 294 293 293 291 287 282 281 282 281 281 281
302 304 306 306 307 308 305 301 300 301 302 303 304 305 306 306 305 305 306 306 305 305 306 305 306 307 307 308 307 307 307 307 306 306 305 305 305 305 306 305 305 305 304 304 304 303 303 303 303 302 302 302 302 301 301 300 300 300 300 300 299 300 301 301 302 302 301 301 300 300 298 296 295 295 294 294 293 293 292 287 283 281 282 281 281 281
301 304 306 306 307 307 303 300 299 299 301 304 305 304 304 305 306 305 304 304 304 304 305 305 306 307 307 307 307 306 307 306 306 305 305 305 305 305 305 304 304 304 304 304 303 302 302 302 302 302 301 301 301 300 300 300 299 300 300 300 300 300 300 301 301 302 301 301 300 299 298 296 295 295 295 294 293 293 292 288 283 281 282 281 281 280
302 305 306 305 307 307 305 303 302 301 303 305 305 304 303 305 306 304 302 303 303 304 305 305 305 306 306 307 307 306 306 306 306 305 305 306 306 305 305 304 304 304 303 303 303 302 302 301 301 300 300 300 300 300 300 299 299 300 300 300 300 300 301 301 301 301 301 300 299 299 298 297 296 295 295 294 293 293 292 289 283 281 281 281 281 280
302 305 305 304 306 306 305 305 305 305 305 305 306 305 304 305 306 303 302 303 304 305 305 305 305 306 305 306 306 305 305 305 305 305 305 305 305 305 304 304 304 303 303 302 302 301 301 300 299 299 299 299 299 299 299 299 299 300 300 300 300 300 301 301 301 301 301 300 299 298 298 297 296 295 295 294 293 293 292 289 284 281 281 281 281 280
301 304 304 304 305 305 305 306 305 305 305 305 307 307 306 306 304 302 302 303 304 305 305 305 306 306 305 305 305 305 305 304 304 305 305 305 305 304 304 303 303 302 302 302 301 300 300 299 298 297 298 298 298 298 299 299 300 300 301 301 301 300 300 301 301 301 301 300 299 298 298 298 297 296 295 294 293 292 292 290 285 281 281 281 280 280
302 305 304 305 306 305 305 305 304 304 304 304 306 306 307 307 305 303 302 303 304 304 304 305 306 306 305 304 304 305 304 304 304 305 305 304 304 304 303 303 302 302 302 301 301 301 300 298 298 297 297 297 297 297 298 299 300 300 301 301 301 301 300 300 301 301 301 300 299 298 298 297 297 296 295 294 294 293 292 291 286 282 281 281 280 280
302 304 304 304 305 303 302 303 303 304 304 303 304 304 305 306 307 306 305 303 303 303 303 304 304 304 304 304 304 304 304 304 304 305 305 304 304 304 303 302 302 302 301 301 300 300 299 298 297 297 297 297 297 297 297 298 298 300 301 301 301 301 300 300 301 301 301 301 300 299 298 297 296 296 295 294 293 293 292 291 287 282 281 281 280 280
299 304 305 303 303 302 302 303 304 304 304 303 304 304 304 304 306 308 306 304 303 302 303 303 303 303 303 304 304 304 304 305 305 305 304 304 304 303 303 302 302 301 301 300 300 299 299 298 297 297 297 297 297 297 297 297 297 298 299 300 301 301 301 301 301 301 301 301 301 299 298 297 296 296 295 294 294 293 292 291 287 283 281 281 280 280
298 304 305 302 303 304 305 305 305 304 303 303 303 304 305 304 304 306 305 303 303 303 303 303 303 303 304 305 305 304 304 305 305 305 304 303 303 303 302 302 301 301 300 300 300 299 298 298 297 297 297 297 297 297 297 297 296 297 297 298 300 301 301 301 301 301 300 300 300 299 298 297 296 296 295 294 294 293 292 291 288 283 281 281 280 280
298 301 303 302 303 305 306 305 305 304 304 305 305 305 304 304 304 305 305 304 304 305 305 305 304 305 305 305 304 304 304 305 305 304 303 302 302 302 302 302 301 300 300 300 300 299 298 298 297 297 297 297 297 297 296 296 296 296 296 297 298 299 301 301 301 301 301 299 298 298 297 297 296 296 295 294 293 293 292 291 288 283 281 281 280 280
298 300 303 303 303 305 306 305 304 304 305 306 306 306 304 304 304 304 305 305 304 305 305 305 305 305 304 304 303 304 305 304 304 303 302 301 301 302 302 301 300 300 299 299 299 299 298 298 297 297 297 296 296 296 296 296 296 296 296 296 296 298 299 300 301 301 301 299 298 297 296 296 295 295 295 294 293 293 292 291 288 284 281 281 280 280
297 299 302 302 302 304 305 304 304 304 304 304 306 307 305 304 304 304 304 304 304 304 304 305 305 304 304 303 303 304 304 303 303 302 301 301 301 301 301 300 300 299 299 299 299 298 298 297 296 296 296 296 296 296 296 296 296 296 296 296 296 297 298 299 300 300 300 300 298 296 295 295 294 294 294 293 293 292 292 292 289 285 282 281 281 280
298 300 301 301 301 303 304 304 304 304 304 305 306 306 305 304 303 303 304 304 304 305 305 305 304 304 303 304 304 304 303 303 301 300 300 301 301 301 300 299 299 299 298 298 298 297 297 296 296 296 296 296 296 296 296 296 296 296 296 296 296 296 296 297 298 298 298 297 296 295 294 294 294 293 293 293 293 292 292 292 290 285 282 281 281 280
299 300 301 301 302 303 304 304 304 304 304 305 305 305 304 304 303 303 304 304 304 304 305 304 303 303 304 304 304 303 302 301 300 300 301 302 301 300 299 298 298 298 298 297 297 296 296 296 296 296 295 295 295 295 295 295 295 295 295 296 296 296 296 296 296 296 296 295 294 294 294 294 293 293 293 293 293 292 292 292 290 286 282 281 281 281
298 300 301 302 302 302 302 303 304 304 305 305 306 305 304 303 303 303 303 304 304 304 304 303 302 303 303 303 303 302 301 300 300 301 302 301 299 298 298 298 298 297 297 296 295 295 295 295 295 295 295 295 295 295 295 295 295 295 295 295 296 295 295 296 296 295 295 294 293 293 293 294 293 293 293 293 293 292 291 292 290 286 283 281 281 281
298 299 300 301 302 302 301 302 303 303 304 305 306 305 303 302 302 302 303 304 304 304 304 303 302 303 303 303 302 301 300 300 300 301 301 299 298 297 297 297 297 297 297 296 295 295 295 295 294 294 294 294 294 294 294 294 295 295 295 295 295 295 295 295 295 295 295 295 294 293 293 293 292 292 293 293 293 292 291 291 290 286 283 281 281 281
297 298 298 299 301 302 301 302 303 303 304 305 306 305 302 302 302 302 303 304 304 303 303 303 303 303 303 302 301 300 300 299 300 300 299 297 297 297 297 297 297 296 296 295 294 295 295 294 294 294 294 294 294 294 294 294 294 294 295 295 295 295 295 295 295 295 296 296 296 295 294 292 291 291 292 292 293 292 291 291 289 286 282 280 281 281
298 298 299 300 301 302 302 302 303 303 304 305 306 304 302 301 302 303 303 304 304 303 303 303 303 303 302 301 300 299 299 299 298 298 297 296 296 296 296 296 296 296 295 294 294 294 294 293 293 293 293 293 294 294 293 294 294 294 294 295 295 295 295 295 295 295 295 296 296 295 294 293 291 291 290 291 292 291 291 290 289 285 281 280 280 280
301 300 300 300 301 302 302 302 302 303 304 305 304 303 301 301 302 303 304 304 303 303 303 302 302 302 301 300 299 298 297 297 297 296 296 296 295 295 295 295 295 295 295 295 294 294 294 293 293 293 293 293 293 293 293 293 293 294 294 295 295 295 295 295 294 294 295 295 295 295 294 293 292 291 290 290 290 290 289 289 288 285 281 280 280 279
303 301 300 299 300 301 302 302 302 303 304 304 303 302 301 302 303 303 303 303 303 302 302 302 301 300 299 298 297 296 296 296 295 295 295 295 294 294 294 294 294 294 294 294 294 294 294 293 293 293 292 292 293 293 293 294 294 294 294 294 295 295 295 295 294 294 294 295 295 295 294 293 292 291 289 288 288 288 288 288 287 284 281 279 279 279
303 302 302 302 302 302 302 301 302 303 303 303 303 303 302 303 303 302 302 302 302 301 300 299 298 297 296 296 296 295 295 295 294 294 294 293 293 293 293 293 293 293 293 293 293 293 293 293 293 293 292 292 292 293 293 294 294 294 294 294 295 294 295 294 294 294 294 294 294 294 294 293 292 291 289 288 287 287 287 287 286 284 281 280 279 278
302 301 302 303 303 302 302 302 302 303 303 303 303 303 303 302 301 300 300 300 299 298 297 296 296 295 295 294 294 294 294 293 293 293 293 293 292 292 292 292 292 292 292 292 292 292 292 292 293 293 293 293 293 293 294 294 294 294 294 294 294 294 294 294 293 293 293 293 293 294 294 293 292 290 289 288 287 286 285 286 286 284 282 281 279 278
302 302 302 302 302 302 302 302 303 303 303 303 303 302 301 300 298 297 297 298 297 296 296 295 295 294 293 293 293 293 293 293 292 292 292 292 292 291 291 291 291 291 291 291 291 291 292 292 293 293 293 294 294 294 294 294 294 294 294 294 294 294 294 294 293 293 293 292 293 293 294 293 291 290 289 288 287 286 285 285 285 284 282 281 279 279
303 302 301 301 301 302 302 303 303 302 301 301 301 300 298 298 297 296 295 295 295 295 295 294 293 293 292 292 292 292 292 292 291 291 291 291 291 291 290 290 290 290 291 291 291 292 292 292 293 293 293 294 293 293 293 294 294 294 294 294 294 294 294 293 293 293 292 292 293 293 293 292 291 290 289 288 287 285 285 284 284 284 283 282 280 279
302 300 300 301 301 301 302 302 301 299 299 300 300 298 297 296 295 295 294 294 294 293 293 293 292 292 292 291 291 291 291 291 291 290 290 290 290 290 290 290 291 291 291 292 292 292 292 293 293 293 293 293 293 293 293 293 294 294 294 294 294 293 293 293 293 292 292 292 293 293 291 290 290 290 288 287 286 285 284 284 284 284 283 283 282 280
301 299 300 301 300 301 302 301 297 295 297 298 297 297 296 295 294 294 293 293 292 292 292 292 291 291 291 290 290 290 290 290 290 290 290 290 290 290 291 291 291 291 292 292 292 292 292 292 292 293 293 293 293 293 293 293 293 293 293 293 293 293 293 293 292 292 292 292 293 293 292 291 291 290 288 287 286 285 284 284 284 283 284 284 284 283
300 300 300 300 299 300 301 298 294 294 295 294 294 295 295 294 294 293 292 292 291 291 291 291 290 290 290 290 290 290 290 290 290 290 290 290 291 291 291 291 292 292 292 292 292 292 292 292 292 292 292 292 293 293 293 293 293 293 293 293 293 293 292 292 292 292 292 293 293 294 293 292 291 290 289 287 286 285 284 283 283 283 284 284 284 283
299 299 299 298 298 298 297 295 293 293 293 293 293 294 293 292 292 292 291 291 291 290 290 290 290 290 290 290 290 290 290 290 290 290 291 291 291 291 291 291 291 292 292 292 292 292 292 292 292 292 292 292 292 292 292 292 292 292 292 292 292 292 292 292 292 292 292 293 294 294 293 292 291 291 289 287 286 284 283 282 282 282 282 283 283 282
297 296 296 295 295 295 294 293 292 292 292 292 292 292 292 291 291 291 291 291 290 290 290 289 289 290 290 290 290 290 290 290 290 290 291 291 291 291 291 291 291 291 291 291 291 291 291 291 291 291 291 291 291 291 291 291 292 292 292 292 292 292 292 292 292 292 292 293 294 294 293 292 291 290 289 288 286 284 283 282 281 281 281 281 281 281
Wind_Speed
3 1 1 2 3 4 4 4 3 4 4 6 7 6 8 8 8 10 3 4 1 5 9 13 15 19 20 19 20 24 24 21 21 21 21 20 19 19 19 19 20 19 17 16 18 20 20 20 20 20 20 22 23 24 25 26 27 30 33 35 37 35 32 30 29 27 24 20 19 19 19 19 18 19 21 23 23 23 24 23 23 23 23 22 22 22
3 1 3 4 4 4 3 3 3 4 5 6 6 7 8 7 8 8 2 3 1 3 8 11 16 20 19 19 21 22 21 20 21 21 21 22 21 20 19 20 20 18 15 16 19 20 20 21 21 20 21 21 22 23 24 25 26 28 31 33 35 35 33 32 30 28 26 22 19 19 19 18 18 19 21 22 21 22 24 25 24 23 23 23 22 22
2 2 4 3 3 2 1 1 2 4 5 6 5 6 7 4 6 5 2 2 1 3 8 10 13 19 20 19 21 22 19 20 22 20 20 21 20 20 19 19 19 17 16 15 16 17 18 20 20 20 21 21 22 24 25 26 27 28 30 32 34 34 34 33 31 29 27 24 21 20 19 19 19 19 21 22 22 23 25 25 25 24 24 23 22 22
1 3 4 2 1 2 2 1 2 5 5 6 5 6 6 6 6 4 1 1 4 6 9 11 9 16 19 16 16 16 14 14 15 14 15 16 18 18 16 15 16 16 15 14 14 14 15 19 20 19 20 21 22 24 26 26 27 28 29 31 32 33 34 33 32 30 28 25 24 22 20 19 19 19 21 23 24 25 25 25 25 25 24 23 22 22
3 3 2 1 0 3 3 3 3 5 5 6 6 5 7 8 8 8 6 9 10 7 6 9 8 10 9 7 7 4 3 5 6 8 11 13 16 18 17 17 18 20 19 17 17 15 14 17 20 20 20 21 23 24 26 26 26 27 28 30 31 32 33 34 33 32 29 27 25 24 21 20 19 20 21 23 23 22 23 24 23 24 25 23 23 23
3 2 0 1 1 2 3 5 2 2 6 4 2 3 6 8 9 10 11 11 9 3 3 4 8 6 3 6 7 2 1 4 4 5 9 9 10 13 14 16 18 19 20 20 20 20 17 17 19 20 20 21 23 25 26 26 26 26 27 28 30 31 32 33 34 33 31 29 27 25 22 20 19 19 20 21 20 19 20 22 23 24 25 24 23 22
2 2 1 1 2 3 4 6 2 0 6 5 2 4 6 7 9 10 9 6 6 6 2 2 5 8 8 8 4 3 5 7 2 2 6 7 5 5 6 10 11 13 15 16 17 19 19 18 20 21 21 22 23 24 26 27 27 27 26 27 28 30 31 33 34 34 32 30 29 26 23 20 18 19 19 19 21 23 23 23 24 24 25 24 23 22
1 2 2 1 3 5 5 4 0 1 5 4 2 4 6 7 9 9 7 5 5 9 5 5 5 7 8 5 2 2 5 6 7 7 7 8 8 6 6 7 9 11 13 14 16 18 18 16 18 22 23 24 24 25 28 29 29 28 26 26 27 29 31 33 34 35 33 31 30 28 24 21 19 20 20 20 22 25 25 24 23 23 23 23 23 21
1 1 2 2 4 4 3 2 3 1 4 3 3 5 7 7 9 7 6 7 5 7 6 5 5 5 7 4 2 2 3 8 9 10 9 9 10 9 8 8 9 11 13 15 18 21 21 19 20 25 26 27 27 27 29 31 31 28 26 26 28 29 30 32 34 34 34 32 31 29 26 22 20 21 22 22 23 25 25 23 22 22 22 22 22 22
1 2 1 2 3 3 4 3 2 2 4 3 5 6 7 7 8 6 6 6 5 6 5 2 3 4 7 7 4 0 3 7 8 9 9 9 10 9 9 11 12 15 17 21 23 24 26 24 25 27 29 31 31 29 30 32 32 30 27 27 28 29 30 32 33 34 34 33 32 30 27 23 21 21 22 23 24 24 24 23 22 21 21 21 21 22
3 2 1 1 3 3 5 3 2 3 5 5 6 8 8 7 6 5 5 4 4 5 1 4 1 3 5 8 7 2 1 3 5 8 9 10 10 9 11 15 17 19 21 25 26 26 26 27 27 28 29 31 31 30 31 33 33 31 28 28 28 29 30 32 33 33 34 34 33 31 28 24 21 22 22 23 24 24 23 23 21 21 21 21 21 21
4 1 1 1 1 2 4 5 3 3 3 4 5 6 8 5 4 3 3 4 4 3 2 3 1 3 5 6 6 3 2 1 2 6 9 11 10 8 10 15 19 21 22 23 25 24 24 25 26 27 29 30 30 31 33 35 34 31 30 28 29 30 31 32 33 33 33 34 33 32 28 25 23 22 23 24 24 23 23 22 21 20 20 20 21 21
1 2 2 2 1 2 3 5 2 4 4 4 5 5 7 6 3 4 4 3 5 1 3 2 2 4 8 9 10 10 7 4 3 4 7 10 11 10 10 13 20 25 23 22 24 25 26 26 26 26 28 29 30 32 34 35 34 32 31 30 30 31 31 32 32 33 33 34 34 32 29 26 24 23 23 24 23 23 23 22 21 20 20 20 20 20
2 2 2 3 2 2 3 5 3 1 2 4 5 5 5 6 6 7 6 6 7 2 4 2 2 5 9 7 8 9 8 7 6 5 6 8 9 12 14 16 21 24 21 20 21 24 29 31 31 30 30 31 32 32 33 34 34 33 32 31 31 31 31 32 32 32 34 34 34 32 29 27 25 24 24 24 23 23 22 22 21 20 20 20 20 20
4 1 1 1 1 1 2 4 4 5 7 5 3 3 4 4 5 7 7 7 8 8 4 1 0 5 5 5 9 10 8 8 6 5 7 9 10 13 17 18 19 21 22 22 22 25 31 34 35 35 35 35 34 33 32 32 34 34 33 32 32 31 31 32 31 32 34 34 34 32 30 28 26 24 24 24 24 23 22 22 21 20 20 20 20 21
5 3 1 2 2 1 2 2 2 4 6 2 1 3 3 3 4 7 9 8 7 8 6 2 3 5 6 9 11 7 8 9 6 5 9 14 16 17 18 18 20 22 25 26 27 28 31 32 33 35 36 36 36 35 32 31 32 33 33 32 32 31 30 31 31 32 33 34 34 33 31 29 27 25 24 24 24 23 22 22 21 20 20 20 20 20
6 5 1 2 2 1 1 1 1 3 4 2 3 4 3 2 3 6 9 5 3 6 7 5 6 6 7 7 4 6 9 10 10 11 15 20 21 19 18 19 22 25 29 31 31 29 29 30 30 30 29 30 32 35 34 33 32 33 33 32 31 31 30 31 32 32 32 33 34 33 32 30 28 26 25 25 24 23 23 22 21 20 20 20 20 20
4 8 6 3 1 1 1 2 3 2 2 3 3 5 5 2 2 3 5 4 5 8 7 7 10 10 8 6 4 7 13 14 11 14 18 20 20 20 20 22 25 28 31 32 32 30 28 29 30 28 26 27 29 34 37 37 35 33 33 32 32 32 31 31 32 32 32 33 33 33 33 31 29 26 25 25 24 24 23 22 21 20 20 20 20 20
2 7 4 1 2 1 3 3 3 3 2 3 3 4 4 2 2 4 5 5 7 8 7 9 11 10 8 5 6 12 18 16 13 15 17 17 18 20 22 25 28 31 32 31 31 31 29 29 30 28 29 31 31 35 40 41 38 35 33 32 32 32 31 31 31 32 32 32 33 33 33 31 29 27 26 26 25 24 24 23 21 20 20 20 21 20
2 4 2 1 2 2 2 2 3 0 2 2 3 2 1 1 4 5 5 5 6 8 8 8 9 8 7 5 8 17 20 16 15 16 16 17 20 21 23 26 29 32 33 31 31 31 30 30 30 29 32 36 36 38 43 43 39 36 34 32 32 32 32 32 32 32 32 32 32 33 33 32 30 28 27 26 25 25 24 23 22 21 20 20 21 20
2 3 5 3 2 3 2 0 4 4 1 1 2 2 1 2 2 3 5 3 4 8 8 7 8 9 9 7 11 19 18 14 15 16 16 19 23 25 26 28 30 31 31 30 30 31 30 30 31 31 34 39 39 40 43 42 38 36 35 33 31 30 31 32 32 32 32 32 32 32 32 32 30 28 28 27 26 25 24 23 22 21 20 20 21 20
2 3 7 7 5 7 4 2 3 3 2 3 4 4 5 5 3 6 6 1 1 5 5 7 9 10 11 10 12 15 13 13 17 16 16 21 27 29 29 30 30 30 29 29 30 31 30 30 33 33 34 37 37 38 41 40 36 35 34 33 32 30 30 32 33 32 32 32 32 32 32 31 30 29 28 28 27 26 25 24 23 22 21 21 21 20
2 3 6 7 8 7 2 5 5 3 1 2 4 2 3 4 4 6 7 4 4 4 2 4 8 9 11 10 10 13 13 16 19 18 19 24 28 30 31 32 31 30 29 28 29 30 30 31 33 34 34 34 34 37 41 41 38 35 33 32 31 29 28 30 32 32 32 32 31 31 31 31 31 30 29 28 27 26 26 24 23 23 22 21 21 20
1 3 4 7 8 4 3 6 5 2 1 2 3 4 3 3 2 4 6 4 5 7 6 6 8 9 9 10 12 17 20 20 19 19 22 25 28 30 31 31 30 29 29 29 30 31 31 31 32 33 35 34 34 35 38 39 39 37 34 32 31 29 27 27 30 32 32 33 32 31 31 31 32 31 30 29 28 27 26 25 24 23 22 21 21 20
2 2 4 6 7 5 1 2 2 0 2 4 5 3 3 1 1 1 3 2 4 10 10 8 8 9 9 11 15 19 20 18 18 21 24 25 27 29 30 30 29 29 29 29 31 32 32 33 33 35 36 36 37 36 35 37 38 37 35 32 31 29 26 24 27 31 32 33 33 31 31 32 33 32 31 29 28 27 26 25 24 24 23 21 21 20
3 4 3 4 6 7 7 6 5 6 6 7 7 5 3 4 4 2 4 4 5 8 9 8 9 11 13 16 17 19 18 16 18 24 27 27 28 29 28 27 27 28 28 29 31 32 34 36 38 40 40 38 38 39 37 35 36 37 36 33 31 29 26 24 25 28 31 33 33 32 32 33 33 33 31 30 28 27 27 26 25 25 24 22 21 20
3 4 4 6 6 6 8 9 10 11 10 10 13 12 5 4 5 3 4 5 6 7 9 10 11 14 17 18 18 19 18 16 17 23 27 29 31 30 27 25 26 26 27 29 32 34 37 41 45 47 44 40 40 40 39 36 35 36 37 36 33 31 28 25 24 26 29 32 33 33 34 34 34 33 32 30 28 28 27 26 25 25 24 23 21 21
3 5 3 4 7 10 12 14 14 12 12 14 15 15 10 3 7 5 6 9 8 7 9 12 14 16 18 19 20 19 17 15 17 23 27 29 31 30 27 26 26 26 27 28 30 31 35 41 47 48 46 44 43 42 40 39 37 36 38 38 36 33 29 26 25 25 27 30 33 34 35 36 35 34 33 31 29 29 28 27 25 25 24 23 22 21
4 5 0 2 6 12 14 16 16 13 13 15 13 14 16 9 6 8 10 12 9 7 11 15 18 19 18 19 21 18 15 15 19 23 25 28 30 28 26 26 26 27 27 29 30 30 33 39 45 47 46 47 46 44 43 42 41 40 40 39 38 36 31 27 25 25 27 30 32 34 36 37 36 34 33 32 31 29 28 27 26 26 25 23 22 21
2 3 1 0 7 11 14 16 13 11 13 14 13 14 16 14 9 9 10 12 12 14 17 18 21 21 18 19 18 15 16 19 22 23 25 27 29 26 24 25 25 26 28 29 31 33 36 41 44 45 46 47 48 48 47 46 44 43 42 41 39 37 33 29 27 26 27 30 32 34 36 37 36 35 34 33 31 30 29 28 26 26 25 23 22 22
2 2 3 1 8 10 10 8 6 9 13 14 15 14 13 13 12 8 8 9 10 13 16 17 18 17 15 15 15 16 19 21 22 22 24 28 28 24 23 24 24 26 28 29 31 35 40 43 45 46 46 47 48 48 49 49 47 45 45 43 41 38 35 32 30 28 29 31 32 34 37 38 37 36 35 34 32 31 30 28 27 26 25 23 23 22
2 3 1 2 7 9 8 9 11 14 14 12 13 13 12 12 10 7 5 6 8 9 12 13 12 11 11 12 15 19 21 21 21 22 23 27 28 23 21 23 24 26 29 30 32 36 39 42 45 47 46 46 47 47 48 49 48 47 46 45 42 40 37 35 33 31 31 32 33 36 38 39 38 37 36 35 33 32 31 29 27 26 25 24 23 22
1 4 4 4 6 9 11 15 16 16 11 6 5 6 9 11 11 9 6 7 10 9 9 9 10 11 13 13 15 18 19 20 23 22 23 27 28 22 19 21 24 27 29 31 33 34 37 41 44 46 46 46 46 46 47 47 45 45 45 45 43 40 38 36 34 33 32 32 34 37 39 39 40 39 37 36 35 33 31 30 28 27 26 24 22 22
1 3 4 3 3 9 14 16 14 11 6 4 4 5 8 10 11 11 9 9 11 11 11 12 14 15 14 13 15 18 20 22 24 24 27 30 26 19 18 22 25 28 31 33 34 35 39 43 45 45 45 45 45 46 47 47 45 45 47 47 46 42 39 38 35 34 33 33 34 37 39 40 41 40 39 37 36 34 32 30 28 27 26 24 23 22
2 4 4 2 3 7 11 11 9 7 6 9 12 8 5 6 8 11 14 15 14 14 15 16 14 13 14 17 20 22 23 24 24 26 33 32 20 14 20 26 29 30 32 35 36 37 41 43 44 46 45 44 44 46 48 49 49 50 51 50 47 43 41 40 38 36 35 34 35 37 38 40 41 41 40 39 38 36 33 30 28 27 26 24 23 23
4 4 3 3 4 6 7 5 5 7 12 18 17 6 1 2 6 10 13 14 13 14 14 12 11 13 17 22 24 24 23 23 23 26 27 20 14 19 26 28 31 33 34 37 39 42 44 44 44 46 45 43 44 46 48 50 51 52 52 51 49 46 42 40 39 37 36 35 35 36 38 40 41 41 40 40 41 39 35 31 29 28 27 25 23 23
5 3 3 4 4 4 5 6 8 10 13 13 8 0 3 0 3 5 9 12 14 12 7 6 11 15 18 23 24 22 20 19 18 18 15 17 25 32 32 30 32 35 36 40 44 46 46 46 47 46 45 44 45 45 47 50 51 52 53 52 50 48 44 40 38 37 35 34 34 35 38 39 40 42 41 41 42 40 35 31 30 29 28 25 24 23
7 5 3 4 3 3 5 7 7 8 8 7 3 5 5 2 1 1 6 11 9 4 4 8 14 16 17 20 22 20 17 14 11 11 15 25 33 35 33 32 32 32 35 41 45 45 45 47 49 47 46 47 47 45 47 50 51 51 52 51 51 49 45 40 38 37 36 35 33 33 35 37 39 42 42 42 43 40 36 33 31 30 28 26 24 23
7 5 3 4 5 5 5 6 6 4 7 10 7 4 6 3 1 2 7 8 1 3 8 12 14 17 18 19 20 17 13 10 9 13 23 31 34 32 32 33 33 33 37 42 44 43 45 48 48 48 49 50 48 46 46 49 51 52 52 52 51 50 47 43 39 37 36 36 35 33 32 34 37 40 42 43 43 40 36 34 32 30 28 25 23 24
5 4 4 6 7 6 5 6 6 5 9 13 11 5 4 2 0 4 9 5 5 14 21 16 16 20 19 18 18 13 9 10 13 21 30 33 33 33 34 35 36 38 40 43 44 44 46 48 48 49 51 51 49 47 45 46 49 50 51 52 52 50 49 46 42 39 37 37 36 34 32 33 35 38 41 42 42 40 37 35 33 30 27 25 25 25
3 3 4 5 6 6 7 7 6 6 10 11 9 6 2 1 3 5 9 11 18 28 29 23 21 22 20 19 18 14 14 20 24 28 32 32 33 35 36 37 40 41 42 44 45 46 48 48 47 49 51 51 50 49 47 47 48 48 49 52 52 50 49 46 42 40 37 36 37 36 34 32 33 35 38 39 40 39 37 36 34 29 26 26 27 26
2 2 3 4 4 5 5 5 6 8 6 4 4 3 2 3 6 9 18 26 30 30 28 26 26 26 26 25 24 22 25 29 30 31 34 34 35 36 37 38 41 43 45 47 48 48 49 48 48 48 49 48 49 50 50 49 47 46 48 50 51 51 50 46 42 40 37 36 36 36 34 32 30 32 34 36 38 38 37 37 33 27 25 27 28 26
2 2 4 4 3 4 5 5 6 5 2 6 5 4 2 7 15 21 27 31 29 28 29 29 28 29 30 29 29 30 32 33 33 35 37 38 39 39 41 42 43 43 45 46 47 47 48 48 48 48 47 47 47 49 50 49 47 46 47 48 49 50 49 47 45 42 39 36 36 35 34 31 28 29 31 32 35 37 38 37 33 28 27 29 28 26
2 2 6 5 3 5 6 4 6 11 13 17 18 13 13 20 27 30 29 26 25 28 29 27 26 29 31 31 32 34 34 34 36 38 39 41 42 43 45 46 46 46 46 46 46 46 47 47 48 48 49 49 49 50 50 50 49 47 47 47 47 47 47 47 45 41 39 38 36 34 33 30 27 27 28 29 32 34 37 37 34 30 30 30 28 27
4 3 3 5 4 6 9 11 15 23 28 31 26 23 27 31 32 33 30 27 26 27 26 26 27 29 31 32 33 33 33 34 36 38 40 41 42 43 45 46 46 47 47 47 47 47 47 48 48 48 49 48 50 52 52 51 48 47 48 48 45 45 46 46 43 40 39 38 36 33 31 29 26 26 27 27 29 31 34 37 36 33 31 30 29 29
5 1 2 4 6 10 14 17 19 23 31 34 29 28 31 30 30 32 31 27 27 28 28 28 30 31 33 34 34 33 34 36 38 39 40 41 41 42 44 45 46 46 47 48 49 49 49 49 49 48 47 47 48 50 50 49 47 46 46 46 43 44 46 44 42 42 40 39 36 33 30 29 27 26 27 27 28 29 32 35 36 35 33 31 30 30
4 6 5 7 9 11 11 10 18 27 31 30 26 26 29 29 28 29 28 27 29 31 31 31 32 34 36 37 37 37 38 39 40 40 40 40 40 42 44 45 46 47 47 48 48 49 50 50 49 48 48 48 49 49 48 48 47 45 44 43 42 43 44 42 41 42 40 38 36 33 30 29 28 27 27 28 28 29 31 34 36 36 34 32 31 32
6 9 10 9 10 13 11 15 29 35 31 28 28 30 31 31 29 28 29 31 33 34 34 35 36 38 40 41 41 41 40 41 41 40 40 40 41 44 47 48 47 46 46 47 48 50 51 50 51 51 51 51 50 49 48 48 47 45 44 43 43 43 42 42 42 41 39 37 34 32 30 28 27 27 28 28 28 29 31 33 34 36 36 34 31 32
12 11 11 11 12 12 11 21 33 32 26 30 35 34 34 35 34 33 36 38 38 39 39 39 42 44 44 43 43 41 40 41 41 41 41 42 42 44 47 48 46 46 46 47 48 49 49 49 50 51 52 54 52 49 47 47 47 47 46 44 44 42 42 42 41 40 37 34 32 31 30 27 26 27 27 28 28 29 30 31 32 34 36 34 31 29
12 9 10 10 9 8 10 20 26 19 16 25 33 33 34 36 35 36 39 40 39 40 41 43 46 46 45 44 45 43 42 42 43 43 42 41 41 42 45 47 47 47 48 48 47 47 47 48 50 51 52 54 53 50 48 48 48 48 47 46 44 43 41 41 40 38 35 32 31 31 30 28 27 26 26 27 28 29 29 30 30 31 34 34 30 27
11 9 11 9 7 9 16 24 25 19 19 26 31 32 35 35 35 37 39 39 39 42 43 44 46 46 47 48 47 45 44 44 44 44 43 41 41 43 45 45 45 46 48 47 46 46 47 48 49 50 51 53 52 50 49 49 50 50 49 47 46 44 41 39 38 36 34 31 29 30 30 29 28 26 25 25 26 27 28 28 28 30 32 34 30 27
Wind_Direction
322 284 56 13 18 7 358 0 341 325 315 305 300 292 287 286 283 287 301 111 133 278 264 262 268 270 271 272 269 269 268 266 257 246 245 249 249 251 254 257 258 261 266 267 271 276 276 276 278 284 289 291 291 291 290 288 284 279 274 272 272 270 266 265 267 271 274 279 288 294 297 297 294 290 289 289 289 288 284 285 288 292 295 299 304 309
280 314 47 28 15 0 347 340 320 309 305 294 285 284 284 279 286 298 354 105 142 266 272 279 284 279 273 274 272 269 266 263 258 247 243 246 246 247 250 253 255 258 262 265 274 279 278 278 277 280 287 290 290 291 290 289 286 281 276 273 271 268 266 265 267 268 270 274 281 288 292 292 289 284 285 285 281 279 283 287 290 291 293 298 303 308
240 82 60 37 28 358 329 343 306 297 288 280 276 275 285 312 312 310 83 101 194 227 279 299 299 288 281 275 271 267 262 261 261 255 251 255 252 246 244 247 252 255 257 263 273 276 278 280 277 277 286 290 289 290 290 289 286 282 279 276 272 268 266 266 266 266 267 270 274 282 287 288 290 290 289 286 279 276 281 285 288 290 292 297 302 306
329 78 63 36 18 308 288 336 296 285 269 251 260 275 288 333 335 301 128 342 270 236 279 304 297 283 282 275 266 260 260 266 270 268 264 264 261 252 246 247 248 249 254 263 275 275 275 278 278 280 287 290 290 290 290 290 289 286 283 280 275 270 267 266 266 265 265 265 269 278 285 288 290 293 293 289 284 281 282 283 285 288 291 294 299 302
61 76 63 122 304 326 311 300 281 283 286 243 234 273 295 317 322 296 304 315 292 246 255 294 285 270 275 283 278 246 223 264 263 267 268 260 256 254 252 248 244 248 256 264 276 280 274 273 279 286 291 293 292 291 292 293 292 290 287 283 278 273 268 266 266 264 262 262 266 273 282 288 291 296 298 294 289 282 280 282 284 287 290 292 295 300
83 92 158 186 288 336 309 293 284 280 300 280 223 344 325 321 315 299 310 319 303 262 185 293 305 291 292 310 312 355 10 285 233 232 271 272 254 245 247 251 249 256 265 270 277 283 279 271 275 287 295 298 297 295 294 294 293 291 289 285 280 275 269 266 264 263 261 261 263 269 278 287 292 296 298 295 288 276 271 276 282 285 288 290 294 299
91 113 190 323 316 302 289 279 259 178 300 302 27 358 331 319 305 297 310 309 297 304 237 195 290 291 302 312 331 15 321 311 321 267 302 319 299 257 260 269 270 274 278 281 283 286 286 275 273 285 295 299 301 300 297 295 293 291 289 286 282 277 271 266 264 262 261 261 262 266 274 283 287 290 292 287 279 273 271 274 278 282 286 289 293 299
120 125 190 257 285 278 283 279 199 98 294 300 36 344 319 307 293 288 297 270 271 306 285 200 220 267 295 314 78 60 324 351 10 360 357 2 0 351 339 326 313 305 299 297 294 293 293 280 273 282 291 296 299 300 299 297 296 292 287 285 283 278 272 267 264 263 261 261 261 264 269 278 284 289 293 289 280 276 276 277 278 281 284 288 293 298
218 273 219 245 265 271 303 5 36 344 273 318 21 330 306 291 282 274 274 268 271 303 292 193 194 255 286 306 104 142 358 21 6 347 346 349 359 3 359 356 345 336 327 317 311 306 303 294 284 283 286 290 295 298 300 299 297 291 285 283 282 279 274 269 265 264 262 260 260 262 265 274 283 289 293 293 288 280 277 276 277 279 281 285 290 294
57 14 8 292 276 303 356 21 27 263 261 330 337 294 272 255 259 256 252 272 274 272 282 154 171 277 296 307 319 161 21 14 352 337 335 335 350 6 12 11 0 352 345 337 332 326 321 314 306 296 289 287 289 294 300 300 297 290 283 281 281 279 275 270 267 265 262 259 259 260 263 272 281 287 290 293 292 284 277 275 275 276 279 283 287 292
97 53 21 312 300 332 341 316 216 248 282 321 306 281 273 243 225 237 239 261 269 251 311 59 75 312 304 300 320 23 86 0 339 323 319 329 348 13 26 24 13 358 347 341 337 332 328 323 317 309 300 293 289 289 296 299 297 290 282 279 280 278 274 270 267 265 262 259 258 258 262 269 277 284 288 291 292 285 277 274 274 275 278 281 285 290
136 142 171 152 297 308 304 276 199 197 258 284 280 284 298 280 211 231 219 208 257 271 59 56 346 295 269 274 309 326 254 250 313 305 312 328 336 355 21 27 16 357 343 340 337 333 331 327 322 316 309 303 295 291 295 297 295 289 282 278 278 277 274 270 267 266 262 259 259 258 260 266 274 281 286 290 292 285 276 273 274 275 277 280 284 288
172 164 149 141 179 210 281 294 212 173 195 239 276 298 310 318 316 291 276 255 282 298 130 112 0 279 256 268 285 291 301 337 350 305 313 326 320 325 342 358 1 350 338 335 336 335 334 331 328 325 319 314 305 297 294 293 292 289 282 277 277 277 274 270 268 266 263 260 260 259 259 263 271 279 285 290 292 285 275 272 272 272 274 277 281 285
352 135 162 175 154 168 261 305 311 250 275 290 312 324 318 326 322 304 304 299 297 292 156 142 8 280 264 278 282 290 326 4 13 352 343 339 329 329 328 329 341 342 333 326 325 327 331 330 328 326 324 322 317 309 299 291 289 287 282 276 275 276 274 270 268 267 264 261 260 260 260 262 269 277 283 288 291 287 276 271 270 270 271 273 276 281
327 321 229 200 75 77 259 319 346 315 300 307 333 319 304 310 301 296 308 308 304 310 300 158 322 279 286 333 322 324 5 37 41 38 23 7 355 347 341 336 335 334 333 329 320 319 325 328 328 326 325 324 323 320 310 298 291 289 285 279 276 276 274 271 270 267 265 262 261 260 260 262 268 276 282 286 291 289 279 271 269 269 270 272 275 280
303 305 91 91 70 318 298 40 31 301 290 306 338 299 305 327 310 291 291 298 307 306 295 230 222 270 296 319 324 351 56 61 45 43 26 7 357 348 343 339 333 331 333 329 320 317 322 325 324 324 325 325 326 326 320 309 298 293 291 284 278 277 275 272 270 267 266 263 261 261 261 263 268 274 280 285 290 291 282 272 269 268 270 272 275 280
312 298 219 131 134 136 357 88 187 300 320 336 316 322 331 312 302 293 286 293 295 277 276 272 279 296 314 322 357 59 41 16 10 15 4 351 347 343 338 337 334 333 331 326 320 318 321 325 324 321 321 322 326 332 332 323 309 299 294 288 280 276 274 272 270 267 266 264 262 261 261 263 267 273 279 283 289 292 284 274 269 269 270 273 276 280
327 294 284 281 297 141 164 249 243 242 309 313 314 333 326 268 219 275 278 293 296 284 288 303 308 314 320 332 34 24 355 349 359 0 350 344 343 341 338 336 334 331 328 325 324 322 321 325 326 322 319 321 329 339 341 335 324 309 298 292 284 277 274 273 271 267 266 265 263 262 262 263 267 272 277 281 287 290 286 276 271 270 270 273 277 281
319 292 304 4 319 245 178 244 264 188 224 294 293 310 317 295 284 284 284 301 302 294 293 305 315 312 308 337 2 341 337 342 348 346 342 344 343 339 338 335 333 330 327 324 325 326 324 325 326 324 324 329 335 341 340 336 332 323 309 298 289 280 276 273 269 266 266 265 264 263 263 264 266 271 276 280 285 289 287 279 271 270 271 273 277 281
305 285 324 98 241 262 193 229 317 352 193 248 258 255 174 236 279 291 298 297 290 288 291 307 319 304 303 343 339 324 330 339 342 340 338 339 339 338 338 335 332 330 327 324 324 325 325 325 327 327 329 332 333 334 333 331 331 330 322 310 297 286 277 272 269 266 265 265 264 263 263 264 266 270 274 279 283 288 289 281 271 269 271 272 276 280
282 255 289 291 252 295 302 326 350 349 336 280 289 294 296 269 266 284 281 268 282 292 296 309 309 292 296 321 319 318 328 335 336 339 338 338 341 339 335 332 330 328 326 327 326 326 325 325 327 327 328 330 330 330 332 331 330 332 330 323 311 295 281 273 270 268 265 264 265 264 263 263 265 269 273 278 281 286 289 281 270 268 270 271 274 278
316 270 288 306 308 309 327 72 46 18 6 320 308 314 315 305 301 296 291 335 351 293 294 301 293 284 284 297 310 316 322 329 337 344 341 340 340 335 329 327 328 329 330 331 330 330 329 327 328 327 327 329 329 330 334 337 335 332 332 331 323 308 290 277 271 269 266 265 266 266 264 263 264 268 272 276 279 285 288 282 271 267 268 270 273 277
341 286 280 291 288 293 2 94 81 54 34 262 262 272 308 298 285 288 301 336 320 281 269 272 267 272 281 294 315 321 321 328 340 348 343 337 334 328 326 326 328 332 335 335 336 337 335 331 330 332 333 332 330 328 330 337 339 335 333 334 329 320 303 285 274 270 267 265 265 266 264 262 263 267 271 275 278 283 287 282 271 266 268 269 271 274
340 271 284 292 286 282 115 111 99 92 183 248 258 240 248 280 294 284 290 319 303 278 273 270 263 271 290 309 321 323 326 331 341 347 339 333 329 326 326 328 331 336 338 338 338 339 340 337 336 337 338 337 335 330 327 331 337 338 335 334 332 326 314 295 279 272 268 265 264 264 263 262 262 266 270 273 276 280 286 282 271 266 267 268 269 273
334 282 312 316 313 322 6 83 72 2 286 312 306 246 199 201 83 295 273 263 258 262 264 269 273 276 292 310 315 319 327 334 340 340 335 331 329 328 328 331 336 338 336 335 335 336 339 340 340 341 341 341 341 338 332 329 333 337 336 334 332 329 320 303 285 274 269 265 263 263 263 262 262 265 269 272 274 278 283 282 272 266 266 267 268 271
303 291 311 315 325 333 328 331 337 326 320 315 302 273 207 178 173 230 281 270 260 272 271 264 267 279 295 307 311 317 327 334 336 335 333 332 331 330 331 334 336 336 333 333 334 336 338 340 342 346 346 345 344 342 340 335 333 336 336 333 331 329 323 310 292 279 272 266 263 262 263 262 262 264 267 270 272 275 280 280 272 265 265 266 266 268
289 273 255 252 275 297 300 302 308 315 312 298 292 290 274 168 169 227 276 269 281 299 286 270 274 287 297 306 312 319 327 334 334 332 330 332 332 331 332 334 333 331 331 333 335 338 339 342 346 349 348 346 345 345 345 343 339 338 338 334 329 327 324 314 300 286 276 269 263 262 262 263 263 264 266 269 270 272 277 279 272 264 263 265 264 266
282 280 257 228 246 263 278 288 293 299 291 280 284 292 291 204 157 185 232 253 285 305 282 279 292 295 297 305 310 315 326 333 331 327 326 327 329 329 329 329 328 328 331 333 335 335 336 340 345 348 348 348 348 349 348 346 345 343 341 337 331 326 322 315 305 292 280 271 265 261 262 263 263 264 265 266 268 269 274 276 271 264 261 262 263 264
288 287 333 149 246 260 271 279 280 278 273 269 269 280 286 272 194 187 226 247 259 260 260 277 291 292 293 299 303 311 325 328 324 321 320 320 322 323 324 323 323 326 330 332 333 332 333 339 344 346 346 346 348 351 350 349 348 346 344 342 335 327 320 313 306 296 284 275 267 263 261 261 262 263 263 264 265 267 271 274 270 263 259 260 261 263
275 282 57 49 271 267 265 266 264 259 263 268 269 271 277 276 250 220 234 248 246 245 253 268 279 282 284 287 294 311 323 321 318 318 319 320 320 318 317 318 321 325 329 329 329 331 334 340 343 345 345 345 346 348 350 351 351 349 347 345 340 332 322 311 304 296 287 278 270 264 261 260 261 262 261 262 263 265 269 271 268 261 257 257 259 260
267 331 53 332 292 288 279 270 257 253 260 273 282 280 278 283 278 253 237 243 246 250 256 264 272 275 279 288 302 316 319 316 316 318 320 321 320 315 312 315 320 324 327 327 326 330 336 340 343 344 345 345 345 345 345 347 349 350 349 347 344 338 328 315 304 296 289 282 273 266 261 259 259 260 260 260 261 262 266 268 266 260 255 255 256 258
265 295 324 324 306 300 313 329 316 294 281 272 272 277 284 290 289 278 249 218 218 252 273 278 277 280 298 315 319 315 314 316 317 319 320 317 315 312 310 316 322 324 326 325 325 329 333 337 341 343 344 345 344 342 341 342 344 347 348 348 345 341 333 323 311 300 293 285 277 268 262 259 258 258 259 259 259 260 262 265 263 258 254 252 254 256
314 301 306 336 312 290 312 328 317 302 297 285 264 280 293 290 283 283 274 214 212 245 277 282 281 295 313 321 315 310 316 321 320 318 317 310 307 307 311 319 324 325 326 326 325 327 331 335 339 341 342 342 341 340 341 342 341 341 342 345 345 343 338 331 321 309 300 290 281 272 265 261 259 258 258 258 257 257 259 262 262 257 252 251 252 254
314 285 291 325 296 289 310 320 311 300 312 338 335 302 278 278 282 290 291 270 259 267 269 266 279 300 310 311 310 312 315 317 315 315 309 300 295 302 318 326 328 326 326 326 325 327 331 334 338 340 341 340 339 339 341 342 341 338 338 341 343 344 341 336 329 319 308 297 287 276 268 262 260 258 258 257 256 256 256 260 262 256 251 248 248 251
281 268 278 290 261 279 303 317 316 320 331 319 315 310 281 278 286 290 288 282 281 287 281 276 286 301 304 306 311 312 310 310 310 309 305 296 291 315 331 331 329 326 324 325 326 329 332 333 334 337 339 339 339 340 340 340 339 337 336 338 341 343 342 337 333 327 318 305 292 281 273 266 261 259 258 257 256 255 255 258 259 254 248 245 246 249
268 278 284 275 258 274 302 314 298 302 306 301 299 309 39 282 286 295 292 283 287 296 292 286 292 302 307 312 314 314 313 311 306 303 303 305 326 342 337 330 327 325 325 327 329 331 333 333 332 333 335 336 339 340 339 337 336 335 334 335 338 341 342 339 335 331 325 314 299 287 279 272 264 260 259 258 257 256 255 256 257 252 246 243 243 245
243 266 289 282 258 263 298 298 284 291 298 294 287 191 108 312 308 312 297 289 296 298 280 276 298 308 316 318 317 317 316 310 303 301 313 339 345 340 333 328 326 325 326 330 333 334 333 333 331 331 332 334 337 338 336 334 333 332 332 332 334 338 342 341 336 333 328 319 306 294 287 280 270 262 260 260 259 257 256 257 256 251 245 240 238 241
230 242 278 291 266 261 294 298 298 299 296 300 356 86 97 49 3 246 278 293 307 314 279 290 306 317 322 320 319 321 318 309 301 309 333 342 338 332 327 325 325 324 323 328 333 332 331 331 331 331 331 333 335 335 334 332 331 330 330 330 332 335 340 340 336 332 327 321 313 302 295 288 277 267 263 263 262 260 259 259 256 251 244 238 236 239
232 246 265 267 264 271 281 280 285 283 273 288 318 75 103 67 77 217 280 293 335 2 316 309 314 319 320 320 322 322 317 308 306 323 334 334 330 327 327 326 326 326 328 332 333 329 328 330 330 330 331 331 331 332 331 329 329 328 328 328 329 331 336 339 336 332 328 323 318 310 301 293 284 274 267 265 265 264 261 259 257 251 243 237 235 238
210 221 224 235 252 255 248 262 277 269 264 283 311 1 84 94 170 270 287 304 6 341 329 328 326 322 320 324 328 327 323 321 319 323 327 327 326 328 329 328 328 328 330 333 333 330 330 331 329 329 330 329 328 328 327 326 326 326 326 327 327 328 333 336 334 331 328 324 320 315 306 297 289 281 273 268 267 266 261 258 256 251 242 237 235 236
211 197 214 243 266 259 248 257 265 267 274 293 328 358 2 267 277 286 298 324 336 331 328 329 330 331 337 341 340 337 329 326 323 322 325 327 328 329 329 328 328 327 327 328 328 328 329 329 328 327 327 326 325 325 325 324 323 323 323 324 324 326 330 333 332 328 324 321 319 317 312 304 296 287 280 274 269 265 260 256 256 251 242 237 235 235
259 198 217 245 260 251 245 260 276 280 291 320 340 337 310 296 305 310 314 320 325 329 334 339 343 350 354 348 341 335 329 327 327 326 328 330 329 328 328 328 328 326 325 326 326 326 325 324 323 322 323 323 322 321 322 322 320 320 320 321 322 324 327 330 330 326 322 319 317 316 315 311 303 294 285 276 269 263 257 254 253 247 239 236 235 235
263 269 278 268 264 278 264 258 278 289 23 33 345 302 299 318 324 330 330 329 336 347 352 352 352 355 352 343 337 333 330 330 331 330 330 329 328 327 327 326 325 324 323 322 322 322 321 318 317 316 318 319 318 317 319 319 317 318 318 318 320 323 325 328 329 326 322 320 318 315 315 314 308 298 289 279 270 263 256 252 248 242 236 235 233 233
188 222 290 301 325 310 284 268 293 299 315 328 323 321 339 346 352 357 354 348 352 356 356 352 349 348 344 338 334 332 329 328 328 328 327 326 325 324 323 323 323 321 320 319 317 317 316 314 312 312 313 315 315 315 317 317 316 316 316 317 320 323 325 327 327 323 320 319 318 315 313 313 307 298 290 281 272 263 255 250 245 240 237 234 230 230
199 180 308 314 291 276 274 278 287 295 310 325 335 349 359 1 6 8 0 351 350 351 349 344 340 338 337 334 330 327 324 323 323 322 321 319 319 319 319 320 320 319 318 316 315 315 315 313 312 311 311 312 313 314 315 316 315 315 316 318 320 323 324 324 322 320 318 318 317 315 312 310 304 296 289 281 272 263 256 250 244 238 236 233 228 228
263 302 333 290 276 275 276 284 300 319 333 343 354 7 8 2 0 360 355 349 344 341 339 337 333 331 330 327 324 320 318 318 317 316 315 314 314 315 317 317 318 318 317 316 315 315 315 314 313 312 310 311 312 313 314 314 312 312 315 318 319 320 321 320 319 319 319 319 318 316 311 307 303 296 288 280 272 265 257 251 244 239 237 233 228 228
12 15 331 285 289 294 288 315 347 348 345 347 352 358 358 353 350 350 347 341 335 332 331 329 326 324 323 321 319 317 314 314 312 310 310 311 311 313 315 315 316 316 316 316 316 317 317 315 314 312 311 312 313 313 312 312 311 311 313 315 316 317 317 318 318 318 318 319 319 317 312 308 306 301 290 280 273 264 256 250 244 239 236 234 230 228
358 347 324 311 310 303 306 352 357 346 341 347 347 343 343 343 341 340 338 334 331 328 327 325 323 322 320 318 317 315 312 311 310 309 310 312 312 313 315 315 315 315 316 316 318 319 319 317 315 314 313 313 313 312 311 311 312 312 312 313 315 316 316 316 317 317 317 318 318 318 316 313 309 303 294 284 275 267 259 253 247 240 238 237 235 233
333 321 324 331 324 308 319 352 352 343 339 343 340 336 338 337 334 333 332 330 327 327 325 323 322 320 318 316 315 313 310 309 310 309 310 311 311 312 313 314 313 313 314 315 316 318 318 317 317 317 315 314 313 313 312 311 312 313 313 314 317 317 316 316 316 316 317 318 319 319 319 315 309 304 297 288 279 271 265 260 254 248 244 241 240 238
353 339 342 340 329 323 338 345 344 337 328 329 329 329 330 329 326 327 327 325 324 324 322 320 319 318 317 315 315 313 309 308 309 309 308 307 308 310 313 315 314 313 314 314 315 317 318 318 318 318 317 317 317 317 315 314 314 315 316 317 318 318 317 316 316 315 317 319 319 320 320 315 310 305 299 291 281 272 265 260 256 252 247 243 239 237
16 4 359 351 326 324 331 331 330 323 311 314 319 322 323 323 324 323 322 321 320 320 319 318 316 314 314 313 313 312 309 308 309 309 308 308 308 309 311 313 313 313 313 314 315 316 318 319 320 320 320 322 322 320 319 318 318 318 319 320 320 319 318 318 316 314 317 319 319 319 319 316 312 307 300 292 283 273 265 259 254 250 244 240 236 233